Weather History for Resolute, NU

Change the Weather History Date:

Friday, November 1, 2013

  Actual Average Record
Temperature  
Mean Temperature 3 °F -  
Max Temperature 9 °F 2 °F 26 °F (2010)
Min Temperature -3 °F -4 °F -25 °F (2004)
Degree Days  
Heating Degree Days 62    
Moisture  
Dew Point 0 °F    
Average Humidity 79    
Maximum Humidity 92    
Minimum Humidity 42    
Precipitation  
Precipitation 0.00 in - - ()
Sea Level Pressure  
Sea Level Pressure 29.99 in    
Wind  
Wind Speed 5 mph ()    
Max Wind Speed 9 mph    
Max Gust Speed -    
Visibility 12.8 miles    
Events Snow    
Averages and records for this station are not official NWS values.
T = Trace of Precipitation, MM = Missing Value Source: Averaged Metar Reports

Daily Weather History Graph

Daily Weather History Graph

Search for Another Location

Airport:

Trip Planner

Search our weather history database for the weather conditions in past years. The results will help you decide how hot, cold, wet, or windy it might be!

Date:

Astronomy

Nov. 01, 2013 Rise Set
Actual Time 11:18 AM CDT 2:46 PM CDT
Civil Twilight 9:15 AM CDT 4:49 PM CDT
Nautical Twilight 7:34 AM CDT 6:29 PM CDT
Astronomical Twilight 6:02 AM CDT 8:01 PM CDT
Moon 7:13 AM CDT (11/1) 3:20 PM CDT (11/1)
Length of Visible Light 7h 34m
Length of Day
3h 27m
Waning Crescent, 4% of the Moon is Illuminated
Nov 1
Waning Crescent
Nov 3
New
Nov 9
First Quarter
Nov 17
Full
Nov 25
Last Quarter

Hourly Weather History & Observations

Time (CDT) Temp. Windchill Dew Point Humidity Pressure Visibility Wind Dir Wind Speed Gust Speed Precip Events Conditions
12:00 AM -0.4 °F -10.4 °F -5.8 °F 78% 30.00 in 1.0 mi SE 4.6 mph - N/A   Overcast
12:28 AM - - - N/A% - 6.0 mi SE 3.5 mph - N/A   Overcast
1:00 AM 2 °F - -3 °F 69% 30.00 in 10 mi SSE 4.6 mph - -   Overcast
1:00 AM 1.4 °F -8.3 °F -2.2 °F 85% 30.00 in 10.0 mi SSE 4.6 mph - N/A   Overcast
1:30 AM - - - N/A% - 6.0 mi SSE 4.6 mph - N/A   Overcast
2:00 AM 3.2 °F -4.2 °F -2.2 °F 78% 29.99 in 6.0 mi SSE 3.5 mph - N/A Snow Light Snow
2:45 AM - - - N/A% - 8.0 mi SSE 5.8 mph - N/A   Overcast
3:00 AM 3.2 °F -7.8 °F -2.2 °F 78% 29.99 in 10.0 mi SSE 5.8 mph - N/A   Overcast
4:00 AM 3.2 °F -7.8 °F -2.2 °F 78% 29.99 in 10.0 mi SE 5.8 mph - N/A   Overcast
4:45 AM - - - N/A% - 15.0 mi SE 5.8 mph - N/A   Mostly Cloudy
5:00 AM 1.4 °F -11.3 °F -4.0 °F 78% 29.99 in 15.0 mi SSE 6.9 mph - N/A   Mostly Cloudy
6:00 AM 1.4 °F -9.9 °F -2.2 °F 85% 29.99 in 15.0 mi SSE 5.8 mph - N/A   Mostly Cloudy
7:00 AM 2 °F - -3 °F 71% 29.99 in 15 mi SSE 8.1 mph - - Snow Snow
7:00 AM 3.2 °F -10.3 °F -2.2 °F 78% 29.99 in 15.0 mi SSE 8.1 mph - N/A   Mostly Cloudy
8:00 AM 3.2 °F -10.3 °F -2.2 °F 78% 29.99 in 15.0 mi SSE 8.1 mph - N/A   Mostly Cloudy
9:00 AM 3.2 °F -10.3 °F -0.4 °F 85% 29.99 in 15.0 mi SE 8.1 mph - N/A   Mostly Cloudy
10:00 AM 5.0 °F -8.1 °F -0.4 °F 78% 29.99 in 15.0 mi SE 8.1 mph - N/A   Mostly Cloudy
11:00 AM 5.0 °F -8.1 °F 1.4 °F 85% 29.98 in 15.0 mi SSE 8.1 mph - N/A   Mostly Cloudy
11:47 AM - - - N/A% - 15.0 mi SE 8.1 mph - N/A   Unknown
12:00 PM 5.0 °F -9.1 °F 1.4 °F 85% 29.98 in 15.0 mi SE 9.2 mph - N/A Snow Light Snow
1:00 PM 6 °F - 2 °F 73% 29.99 in 15 mi SSE 8.1 mph - - Snow Light Snow
1:00 PM 6.8 °F -5.9 °F 1.4 °F 79% 29.99 in 15.0 mi SSE 8.1 mph - N/A Snow Light Snow
2:00 PM 6.8 °F -4.8 °F 3.2 °F 85% 29.99 in 12.0 mi SSE 6.9 mph - N/A Snow Light Snow
3:00 PM 6.8 °F -4.8 °F 3.2 °F 85% 29.99 in 15.0 mi SSE 6.9 mph - N/A Snow Light Snow
4:00 PM 6.8 °F -3.5 °F 3.2 °F 85% 29.99 in 15.0 mi SE 5.8 mph - N/A Snow Light Snow
5:00 PM 8.6 °F -1.3 °F 3.2 °F 79% 30.00 in 15.0 mi SSE 5.8 mph - N/A   Mostly Cloudy
6:00 PM 8.6 °F -1.3 °F 3.2 °F 79% 30.01 in 15.0 mi South 5.8 mph - N/A   Mostly Cloudy
7:00 PM 9 °F - -3 °F 42% 30.01 in 15 mi South 6.9 mph - -   Partly Cloudy
7:00 PM 8.6 °F -2.6 °F -4.0 °F 57% 30.01 in 15.0 mi South 6.9 mph - N/A   Mostly Cloudy
8:00 PM 8.6 °F -1.3 °F 6.8 °F 92% 30.01 in 15.0 mi SSW 5.8 mph - N/A   Overcast
9:00 PM 8.6 °F 0.1 °F 6.8 °F 92% 30.00 in 15.0 mi South 4.6 mph - N/A   Overcast
10:00 PM 8.6 °F -1.3 °F 6.8 °F 92% 29.99 in 15.0 mi SSE 5.8 mph - N/A   Overcast
11:00 PM 8.6 °F 2.0 °F 6.8 °F 92% 29.99 in 15.0 mi South 3.5 mph - N/A   Mostly Cloudy